Regional Weather Roundup
Issued by NWS Albany, NY

Home | Current Version | Previous Version | Text Only | Print | Product List | Glossary On
Versions: 1 2 3 4 5 6 7 8 9 10 11 12 13 14 15 16 17 18 19 20 21 22 23 24 25 26 27 28 29 30 31 32 33 34 35 36 37 38 39 40 41 42 43 44 45 46 47 48 49 50
000
ASUS41 KALY 031510
RWRALY

NEW YORK STATE HOURLY WEATHER ROUNDUP
NATIONAL WEATHER SERVICE ALBANY NY
1100 AM EDT SUN MAY 03 2015

NOTE: "FAIR" INDICATES FEW OR NO CLOUDS BELOW 12,000 FEET WITH NO
SIGNIFICANT WEATHER AND/OR NO OBSTRUCTIONS TO VISIBILITY.

NYZ032-033-038>043-046>054-057>066-NYZ062>081-031600-
EAST


CITY           SKY/WX    TMP DP  RH WIND       PRES   REMARKS
ALBANY         MOSUNNY   70  42  36 CALM      30.06S
GLENS FALLS    MOSUNNY   61  45  55 SE6       30.06S
POUGHKEEPSIE   SUNNY     69  41  36 CALM      30.07S
NEWBURGH       SUNNY     68  45  42 CALM      30.09
MONTGOMERY     SUNNY     72  44  36 CALM      30.07S
WHITE PLAINS   SUNNY     69  40  34 VRB3      30.08R
ISLIP          MOSUNNY   60  45  57 S12       30.09R
NEW YORK CITY  MOSUNNY   66  41  40 N3        30.09R
CENTRAL PARK   SUNNY     69  40  34 CALM      30.12R
$$

NYZ005>009-017-018-044>046-055-056-031600-
CENTRAL


CITY           SKY/WX    TMP DP  RH WIND       PRES   REMARKS
FULTON         MOSUNNY   68  39  34 NW3       30.07S
SYRACUSE       MOSUNNY   70  38  31 NW6       30.07S
ROME           SUNNY     66  40  38 W8        30.08S
ELMIRA         SUNNY     71  40  32 SW8       30.08F
BINGHAMTON     SUNNY     66  39  37 SW6       30.10S
MONTICELLO     SUNNY     68  37  32 NW6       30.12S
$$

NYZ026>034-041>043-031600-
NORTH


CITY           SKY/WX    TMP DP  RH WIND       PRES   REMARKS
WATERTOWN      SUNNY     64  44  48 W12       30.06R
FORT DRUM      NOT AVBL
MASSENA        SUNNY     70  40  33 SW10      30.03R
SARANAC LAKE   MOSUNNY   66  36  32 VRB5      30.03S
PLATTSBURGH    MOSUNNY   62  41  46 SE13      30.00S
$$

NYZ001>004-010>016-019>021-031600-
WEST


CITY           SKY/WX    TMP DP  RH WIND       PRES   REMARKS
NIAGARA FALLS  MOSUNNY   67  42  40 SW14      30.06S
BUFFALO        MOSUNNY   66  39  37 SW14      30.08R
DUNKIRK        SUNNY     68  40  35 SW12      30.09R
JAMESTOWN      SUNNY     64  39  39 S6        30.12S
WELLSVILLE     SUNNY     69  36  29 VRB6      30.13S
ROCHESTER      MOSUNNY   71  39  31 W8        30.07R
PENN YAN       SUNNY     71  39  31 S7        30.08S
$$

             KEY
       WCI = WIND CHILL INDEX
       VSB = VISIBILITY
       HX  = HEAT INDEX
$$



USA.gov is the U.S. government's official web portal to all federal, state and local government web resources and services.